Time,TemperatureF,DewpointF,PressureIn,WindDirection,WindDirectionDegrees,WindSpeedMPH,WindSpeedGustMPH,Humidity,HourlyPrecipIn,Conditions,Clouds,dailyrainin,SolarRadiationWatts/m^2,SoftwareType,DateUTC
2013-04-01 00:00:00,65.2,64.9,30.00,SE,135,0.0,0.0,99,0.00,CLR,,0.00,0.0,WeatherDisplay:10.37,2013-03-31 14:00:00,
2013-04-01 00:05:00,65.1,64.8,30.00,SE,135,0.0,0.0,99,0.00,CLR,,0.00,0.0,WeatherDisplay:10.37,2013-03-31 14:05:00,
2013-04-01 00:10:00,65.1,64.8,30.00,SE,146,1.0,3.0,99,0.00,CLR,,0.00,0.0,WeatherDisplay:10.37,2013-03-31 14:10:00,
2013-04-01 00:15:00,64.9,64.7,30.00,SE,140,2.0,4.0,99,0.00,CLR,,0.00,0.0,WeatherDisplay:10.37,2013-03-31 14:15:00,
2013-04-01 00:20:00,64.9,64.7,30.00,SE,135,2.0,3.0,99,0.00,CLR,,0.00,0.0,WeatherDisplay:10.37,2013-03-31 14:20:00,
2013-04-01 00:25:00,64.9,64.6,30.00,SSE,152,2.0,4.0,99,0.00,CLR,,0.00,0.0,WeatherDisplay:10.37,2013-03-31 14:25:00,
2013-04-01 00:30:00,64.8,64.5,30.00,SSE,150,2.0,4.0,99,0.00,CLR,,0.00,0.0,WeatherDisplay:10.37,2013-03-31 14:30:00,
2013-04-01 00:35:00,64.9,64.7,30.00,SSE,151,2.0,4.0,99,0.00,CLR,,0.00,0.0,WeatherDisplay:10.37,2013-03-31 14:35:00,
2013-04-01 00:45:00,64.6,64.3,29.99,SE,141,1.0,3.0,99,0.00,CLR,,0.00,0.0,WeatherDisplay:10.37,2013-03-31 14:45:00,
2013-04-01 00:50:00,64.3,63.7,29.99,SE,135,0.0,1.0,98,0.00,CLR,,0.00,0.0,WeatherDisplay:10.37,2013-03-31 14:50:00,
2013-04-01 00:55:00,64.2,63.4,29.99,SE,135,0.0,0.0,97,0.00,CLR,,0.00,0.0,WeatherDisplay:10.37,2013-03-31 14:55:00,
2013-04-01 01:00:00,64.2,63.4,29.99,SE,135,0.0,0.0,97,0.00,CLR,,0.00,0.0,WeatherDisplay:10.37,2013-03-31 15:00:00,
2013-04-01 01:05:00,64.2,63.4,29.98,SE,135,0.0,0.0,97,0.00,CLR,,0.00,0.0,WeatherDisplay:10.37,2013-03-31 15:05:00,
2013-04-01 01:10:00,64.0,63.2,29.98,SE,135,0.0,2.0,97,0.00,CLR,,0.00,0.0,WeatherDisplay:10.37,2013-03-31 15:10:00,
2013-04-01 01:15:00,64.2,63.4,29.98,SE,135,0.0,1.0,97,0.00,CLR,,0.00,0.0,WeatherDisplay:10.37,2013-03-31 15:15:00,
2013-04-01 01:20:00,64.2,63.4,29.98,SE,135,0.0,0.0,97,0.00,CLR,,0.00,0.0,WeatherDisplay:10.37,2013-03-31 15:20:00,
2013-04-01 01:25:00,64.2,63.4,29.97,SSE,156,0.0,0.0,97,0.00,CLR,,0.00,0.0,WeatherDisplay:10.37,2013-03-31 15:25:00,
2013-04-01 01:30:00,64.0,63.2,29.97,South,178,0.0,0.0,97,0.00,CLR,,0.00,0.0,WeatherDisplay:10.37,2013-03-31 15:30:00,
2013-04-01 01:35:00,63.9,63.0,29.97,South,180,0.0,0.0,97,0.00,CLR,,0.00,0.0,WeatherDisplay:10.37,2013-03-31 15:35:00,
2013-04-01 01:40:00,63.9,63.0,29.98,SSW,195,0.0,0.0,97,0.00,CLR,,0.00,0.0,WeatherDisplay:10.37,2013-03-31 15:40:00,
2013-04-01 01:45:00,63.9,63.0,29.97,SW,222,0.0,0.0,97,0.00,CLR,,0.00,0.0,WeatherDisplay:10.37,2013-03-31 15:45:00,
2013-04-01 01:50:00,63.7,62.8,29.97,SW,222,0.0,2.0,97,0.00,CLR,,0.00,0.0,WeatherDisplay:10.37,2013-03-31 15:50:00,
2013-04-01 01:55:00,64.0,63.2,29.97,SSW,195,0.0,3.0,97,0.00,CLR,,0.00,0.0,WeatherDisplay:10.37,2013-03-31 15:55:00,
2013-04-01 02:00:00,63.9,63.0,29.97,South,180,0.0,0.0,97,0.00,CLR,,0.00,0.0,WeatherDisplay:10.37,2013-03-31 16:00:00,
2013-04-01 02:05:00,63.7,62.8,29.97,South,180,0.0,0.0,97,0.00,CLR,,0.00,0.0,WeatherDisplay:10.37,2013-03-31 16:05:00,
2013-04-01 02:10:00,63.9,63.1,29.97,SSE,164,0.0,1.0,97,0.00,CLR,,0.00,0.0,WeatherDisplay:10.37,2013-03-31 16:10:00,
2013-04-01 02:15:00,64.2,63.4,29.97,SSE,152,0.0,0.0,97,0.00,CLR,,0.00,0.0,WeatherDisplay:10.37,2013-03-31 16:15:00,
2013-04-01 02:20:00,64.4,64.1,29.97,SSE,158,0.0,0.0,99,0.00,CLR,,0.00,0.0,WeatherDisplay:10.37,2013-03-31 16:20:00,
2013-04-01 02:25:00,64.4,64.1,29.97,SSE,149,0.0,0.0,99,0.00,CLR,,0.00,0.0,WeatherDisplay:10.37,2013-03-31 16:25:00,
2013-04-01 02:30:00,64.6,64.3,29.97,SE,135,0.0,0.0,99,0.00,CLR,,0.00,0.0,WeatherDisplay:10.37,2013-03-31 16:30:00,
2013-04-01 02:35:00,64.3,63.7,29.96,SE,135,0.0,0.0,98,0.00,CLR,,0.00,0.0,WeatherDisplay:10.37,2013-03-31 16:35:00,
2013-04-01 02:40:00,64.2,63.4,29.96,SE,135,0.0,3.0,97,0.00,CLR,,0.00,0.0,WeatherDisplay:10.37,2013-03-31 16:40:00,
2013-04-01 02:45:00,64.4,64.1,29.96,SE,144,0.0,2.0,99,0.00,CLR,,0.00,0.0,WeatherDisplay:10.37,2013-03-31 16:45:00,
2013-04-01 02:50:00,64.2,63.4,29.96,SE,140,0.0,0.0,97,0.00,CLR,,0.00,0.0,WeatherDisplay:10.37,2013-03-31 16:50:00,
2013-04-01 02:55:00,64.2,63.4,29.96,SSE,151,0.0,0.0,97,0.00,CLR,,0.00,0.0,WeatherDisplay:10.37,2013-03-31 16:55:00,
2013-04-01 03:00:00,64.2,63.4,29.96,South,174,0.0,0.0,97,0.00,CLR,,0.00,0.0,WeatherDisplay:10.37,2013-03-31 17:00:00,
2013-04-01 03:05:00,64.0,63.2,29.96,SSE,165,0.0,3.0,97,0.00,CLR,,0.00,0.0,WeatherDisplay:10.37,2013-03-31 17:05:00,
2013-04-01 03:10:00,63.9,63.1,29.96,SE,143,1.0,4.0,97,0.00,CLR,,0.00,0.0,WeatherDisplay:10.37,2013-03-31 17:10:00,
2013-04-01 03:15:00,64.0,63.2,29.96,SSE,149,0.0,2.0,97,0.00,CLR,,0.00,0.0,WeatherDisplay:10.37,2013-03-31 17:15:00,
2013-04-01 03:20:00,64.1,63.2,29.95,SSE,147,0.0,0.0,97,0.00,CLR,,0.00,0.0,WeatherDisplay:10.37,2013-03-31 17:20:00,
2013-04-01 03:25:00,64.2,63.4,29.96,SE,135,0.0,0.0,97,0.00,CLR,,0.00,0.0,WeatherDisplay:10.37,2013-03-31 17:25:00,
2013-04-01 03:35:00,64.2,63.4,29.95,South,180,0.0,0.0,97,0.00,CLR,,0.00,0.0,WeatherDisplay:10.37,2013-03-31 17:35:00,
2013-04-01 03:40:00,64.2,63.4,29.96,South,180,0.0,0.0,97,0.00,CLR,,0.00,0.0,WeatherDisplay:10.37,2013-03-31 17:40:00,
2013-04-01 03:45:00,64.2,63.4,29.96,South,183,0.0,0.0,97,0.00,CLR,,0.00,0.0,WeatherDisplay:10.37,2013-03-31 17:45:00,
2013-04-01 03:50:00,64.2,63.4,29.96,SSW,209,0.0,0.0,97,0.00,CLR,,0.00,0.0,WeatherDisplay:10.37,2013-03-31 17:50:00,
2013-04-01 03:55:00,64.0,63.2,29.96,SW,225,0.0,0.0,97,0.00,CLR,,0.00,0.0,WeatherDisplay:10.37,2013-03-31 17:55:00,
2013-04-01 04:00:00,64.0,63.2,29.96,SW,225,0.0,0.0,97,0.00,CLR,,0.00,0.0,WeatherDisplay:10.37,2013-03-31 18:00:00,
2013-04-01 04:05:00,64.0,63.2,29.96,SW,225,0.0,0.0,97,0.00,CLR,,0.00,0.0,WeatherDisplay:10.37,2013-03-31 18:05:00,
2013-04-01 04:10:00,64.0,63.1,29.96,SSW,208,0.0,0.0,97,0.00,CLR,,0.00,0.0,WeatherDisplay:10.37,2013-03-31 18:10:00,
2013-04-01 04:15:00,63.9,63.0,29.96,SSW,192,1.0,3.0,97,0.00,CLR,,0.00,0.0,WeatherDisplay:10.37,2013-03-31 18:15:00,
2013-04-01 04:20:00,63.9,63.0,29.97,South,175,2.0,3.0,97,0.00,CLR,,0.00,0.0,WeatherDisplay:10.37,2013-03-31 18:20:00,
2013-04-01 04:25:00,63.9,63.0,29.96,SSE,152,2.0,3.0,97,0.00,CLR,,0.00,0.0,WeatherDisplay:10.37,2013-03-31 18:25:00,
2013-04-01 04:30:00,63.7,62.8,29.96,SE,139,0.0,2.0,97,0.00,CLR,,0.00,0.0,WeatherDisplay:10.37,2013-03-31 18:30:00,
2013-04-01 04:35:00,63.8,62.9,29.96,SE,135,0.0,0.0,97,0.00,CLR,,0.00,0.0,WeatherDisplay:10.37,2013-03-31 18:35:00,
2013-04-01 04:40:00,63.9,63.0,29.96,SSE,161,0.0,0.0,97,0.00,CLR,,0.00,0.0,WeatherDisplay:10.37,2013-03-31 18:40:00,
2013-04-01 04:45:00,63.7,62.8,29.96,SSE,153,0.0,0.0,97,0.00,CLR,,0.00,0.0,WeatherDisplay:10.37,2013-03-31 18:45:00,
2013-04-01 04:50:00,63.3,62.5,29.96,SE,135,0.0,0.0,97,0.00,CLR,,0.00,0.0,WeatherDisplay:10.37,2013-03-31 18:50:00,
2013-04-01 04:55:00,63.1,62.3,29.96,SE,135,0.0,2.0,97,0.00,CLR,,0.00,0.0,WeatherDisplay:10.37,2013-03-31 18:55:00,
2013-04-01 05:00:00,63.0,62.2,29.97,SE,135,0.0,1.0,97,0.00,CLR,,0.00,0.0,WeatherDisplay:10.37,2013-03-31 19:00:00,
2013-04-01 05:05:00,63.0,62.1,29.97,SE,135,0.0,1.0,97,0.00,CLR,,0.00,0.0,WeatherDisplay:10.37,2013-03-31 19:05:00,
2013-04-01 05:10:00,63.0,62.1,29.97,SE,135,0.0,0.0,97,0.00,CLR,,0.00,0.0,WeatherDisplay:10.37,2013-03-31 19:10:00,
2013-04-01 05:15:00,63.0,62.1,29.97,SE,135,0.0,0.0,97,0.00,CLR,,0.00,0.0,WeatherDisplay:10.37,2013-03-31 19:15:00,
2013-04-01 05:20:00,63.0,62.1,29.97,SE,135,0.0,0.0,97,0.00,CLR,,0.00,0.0,WeatherDisplay:10.37,2013-03-31 19:20:00,
2013-04-01 05:25:00,63.0,62.1,29.97,SE,145,0.0,0.0,97,0.00,CLR,,0.00,0.0,WeatherDisplay:10.37,2013-03-31 19:25:00,
2013-04-01 05:30:00,62.6,61.7,29.98,South,169,0.0,0.0,97,0.00,CLR,,0.00,0.0,WeatherDisplay:10.37,2013-03-31 19:30:00,
2013-04-01 05:40:00,62.1,61.5,29.97,SSE,157,0.0,0.0,98,0.00,CLR,,0.00,0.0,WeatherDisplay:10.37,2013-03-31 19:40:00,
2013-04-01 05:45:00,62.1,61.5,29.97,ENE,62,0.0,0.0,98,0.00,CLR,,0.00,0.0,WeatherDisplay:10.37,2013-03-31 19:45:00,
2013-04-01 05:50:00,62.1,61.5,29.97,NNW,330,0.0,0.0,98,0.00,CLR,,0.00,0.0,WeatherDisplay:10.37,2013-03-31 19:50:00,
2013-04-01 05:55:00,62.1,61.5,29.97,NW,315,0.0,0.0,98,0.00,CLR,,0.00,0.0,WeatherDisplay:10.37,2013-03-31 19:55:00,
2013-04-01 06:00:00,61.9,61.3,29.98,NW,315,0.0,0.0,98,0.00,CLR,,0.00,0.0,WeatherDisplay:10.37,2013-03-31 20:00:00,
2013-04-01 06:05:00,61.9,61.3,29.97,NW,315,0.0,0.0,98,0.00,CLR,,0.00,0.0,WeatherDisplay:10.37,2013-03-31 20:05:00,
2013-04-01 06:10:00,61.7,61.1,29.98,NW,315,0.0,0.0,98,0.00,CLR,,0.00,0.0,WeatherDisplay:10.37,2013-03-31 20:10:00,
2013-04-01 06:15:00,61.7,61.1,29.98,NNE,20,0.0,0.0,98,0.00,CLR,,0.00,0.0,WeatherDisplay:10.37,2013-03-31 20:15:00,
2013-04-01 06:20:00,61.7,61.1,29.98,ESE,113,0.0,0.0,98,0.00,CLR,,0.00,0.0,WeatherDisplay:10.37,2013-03-31 20:20:00,
2013-04-01 06:25:00,61.8,61.2,29.98,ESE,106,0.0,0.0,98,0.00,CLR,,0.00,1.7,WeatherDisplay:10.37,2013-03-31 20:25:00,
2013-04-01 06:30:00,61.5,61.0,29.98,East,90,0.0,0.0,98,0.00,CLR,,0.00,7.1,WeatherDisplay:10.37,2013-03-31 20:30:00,
2013-04-01 06:35:00,61.7,61.1,29.98,East,90,0.0,0.0,98,0.00,CLR,,0.00,12.9,WeatherDisplay:10.37,2013-03-31 20:35:00,
2013-04-01 06:40:00,61.5,61.0,29.98,East,98,0.0,0.0,98,0.00,CLR,,0.00,18.4,WeatherDisplay:10.37,2013-03-31 20:40:00,
2013-04-01 06:45:00,61.9,61.3,29.99,ESE,122,0.0,2.0,98,0.00,BKN,,0.00,41.5,WeatherDisplay:10.37,2013-03-31 20:45:00,
2013-04-01 06:50:00,63.1,62.2,29.99,SSE,159,0.0,2.0,97,0.00,BKN,,0.00,51.6,WeatherDisplay:10.37,2013-03-31 20:50:00,
2013-04-01 07:00:00,64.6,64.3,29.99,South,176,0.0,1.0,99,0.00,BKN,,0.00,65.4,WeatherDisplay:10.37,2013-03-31 21:00:00,
2013-04-01 07:05:00,64.8,64.5,29.99,SSE,152,0.0,0.0,99,0.00,BKN,,0.00,104.6,WeatherDisplay:10.37,2013-03-31 21:05:00,
2013-04-01 07:10:00,65.6,65.3,29.99,SSE,149,0.0,0.0,99,0.00,BKN,,0.00,116.4,WeatherDisplay:10.37,2013-03-31 21:10:00,
2013-04-01 07:15:00,66.4,65.8,30.00,SSE,155,0.0,0.0,98,0.00,SCT,,0.00,144.4,WeatherDisplay:10.37,2013-03-31 21:15:00,
2013-04-01 07:20:00,68.0,66.8,29.99,SSE,153,0.0,0.0,96,0.00,FEW,,0.00,163.9,WeatherDisplay:10.37,2013-03-31 21:20:00,
2013-04-01 07:25:00,69.7,67.6,29.99,SSE,152,0.0,0.0,93,0.00,CLR,,0.00,185.1,WeatherDisplay:10.37,2013-03-31 21:25:00,
2013-04-01 07:30:00,68.9,65.5,30.00,SE,145,3.0,5.0,89,0.00,CLR,,0.00,183.0,WeatherDisplay:10.37,2013-03-31 21:30:00,
2013-04-01 07:35:00,69.6,66.2,30.00,SSE,153,2.0,6.0,89,0.00,CLR,,0.00,163.0,WeatherDisplay:10.37,2013-03-31 21:35:00,
2013-04-01 07:40:00,69.8,65.8,30.00,SSE,147,3.0,5.0,87,0.00,CLR,,0.00,144.0,WeatherDisplay:10.37,2013-03-31 21:40:00,
2013-04-01 07:45:00,69.8,65.8,30.00,SSE,155,2.0,5.0,87,0.00,CLR,,0.00,126.0,WeatherDisplay:10.37,2013-03-31 21:45:00,
2013-04-01 07:50:00,71.4,67.0,30.00,South,177,1.0,3.0,86,0.00,CLR,,0.00,108.0,WeatherDisplay:10.37,2013-03-31 21:50:00,
2013-04-01 07:55:00,73.4,68.6,30.00,South,186,0.0,3.0,85,0.00,CLR,,0.00,90.0,WeatherDisplay:10.37,2013-03-31 21:55:00,
2013-04-01 08:00:00,74.4,67.8,30.00,South,174,2.0,4.0,80,0.00,CLR,,0.00,73.0,WeatherDisplay:10.37,2013-03-31 22:00:00,
2013-04-01 08:05:00,74.8,68.3,30.00,SSE,151,2.0,4.0,80,0.00,CLR,,0.00,56.0,WeatherDisplay:10.37,2013-03-31 22:05:00,
2013-04-01 08:10:00,74.8,67.9,30.00,ESE,122,3.0,5.0,79,0.00,CLR,,0.00,40.0,WeatherDisplay:10.37,2013-03-31 22:10:00,
2013-04-01 08:15:00,76.1,69.1,30.00,SE,129,1.0,3.0,79,0.00,CLR,,0.00,25.0,WeatherDisplay:10.37,2013-03-31 22:15:00,
2013-04-01 08:20:00,78.4,69.8,30.00,East,82,1.0,2.0,75,0.00,CLR,,0.00,10.0,WeatherDisplay:10.37,2013-03-31 22:20:00,
2013-04-01 08:25:00,80.0,70.6,30.00,NNW,340,0.0,2.0,73,0.00,OVC,,0.00,525.9,WeatherDisplay:10.37,2013-03-31 22:25:00,
2013-04-01 08:30:00,81.4,71.1,30.00,NNW,333,0.0,3.0,71,0.00,OVC,,0.00,566.9,WeatherDisplay:10.37,2013-03-31 22:30:00,
2013-04-01 08:35:00,81.7,70.1,30.00,NNE,33,0.0,3.0,68,0.00,OVC,,0.00,599.7,WeatherDisplay:10.37,2013-03-31 22:35:00,
2013-04-01 08:40:00,82.2,70.6,30.00,SE,140,0.0,2.0,68,0.00,OVC,,0.00,616.9,WeatherDisplay:10.37,2013-03-31 22:40:00,
2013-04-01 08:45:00,81.1,68.7,30.00,South,179,1.0,6.0,66,0.00,OVC,,0.00,656.0,WeatherDisplay:10.37,2013-03-31 22:45:00,
2013-04-01 08:50:00,81.1,69.1,30.00,South,170,2.0,3.0,67,0.00,OVC,,0.00,693.7,WeatherDisplay:10.37,2013-03-31 22:50:00,
2013-04-01 08:55:00,80.8,69.2,30.01,SSE,153,1.0,3.0,68,0.00,OVC,,0.00,645.5,WeatherDisplay:10.37,2013-03-31 22:55:00,
2013-04-01 09:05:00,85.9,70.9,30.00,East,98,2.0,6.0,61,0.00,OVC,,0.00,386.1,WeatherDisplay:10.37,2013-03-31 23:05:00,
2013-04-01 09:10:00,83.5,69.1,30.00,SSE,164,1.0,6.0,62,0.00,OVC,,0.00,930.6,WeatherDisplay:10.37,2013-03-31 23:10:00,
2013-04-01 09:20:00,82.9,69.5,30.01,SSW,213,0.0,4.0,64,0.00,OVC,,0.00,703.2,WeatherDisplay:10.37,2013-03-31 23:20:00,
2013-04-01 09:25:00,83.7,69.7,30.00,SSE,167,2.0,5.0,63,0.00,OVC,,0.00,621.4,WeatherDisplay:10.37,2013-03-31 23:25:00,
2013-04-01 09:30:00,82.1,69.2,30.00,NNE,25,6.0,7.0,65,0.00,OVC,,0.00,461.6,WeatherDisplay:10.37,2013-03-31 23:30:00,
2013-04-01 09:35:00,81.3,69.3,30.00,NNE,30,2.0,7.0,67,0.00,OVC,,0.00,1085.0,WeatherDisplay:10.37,2013-03-31 23:35:00,
2013-04-01 09:40:00,82.3,69.4,30.00,ENE,58,2.0,5.0,65,0.00,OVC,,0.00,1113.0,WeatherDisplay:10.37,2013-03-31 23:40:00,
2013-04-01 09:45:00,83.4,69.5,30.00,SW,223,1.0,5.0,63,0.00,OVC,,0.00,1191.4,WeatherDisplay:10.37,2013-03-31 23:45:00,
2013-04-01 09:50:00,84.2,68.3,30.00,SSE,155,1.0,6.0,59,0.00,OVC,,0.00,1181.5,WeatherDisplay:10.37,2013-03-31 23:50:00,
2013-04-01 09:55:00,85.8,69.8,30.00,East,92,5.0,6.0,59,0.00,OVC,,0.00,1229.7,WeatherDisplay:10.37,2013-03-31 23:55:00,
2013-04-01 10:00:00,84.6,68.2,30.00,SSE,158,3.0,6.0,58,0.00,OVC,,0.00,1269.3,WeatherDisplay:10.37,2013-04-01 00:00:00,
2013-04-01 10:05:00,84.7,68.8,30.00,SSE,163,5.0,7.0,59,0.00,OVC,,0.00,1351.3,WeatherDisplay:10.37,2013-04-01 00:05:00,
2013-04-01 10:10:00,83.0,68.2,30.00,SE,133,2.0,8.0,61,0.00,OVC,,0.00,658.6,WeatherDisplay:10.37,2013-04-01 00:10:00,
2013-04-01 10:15:00,82.5,67.7,30.00,ENE,75,3.0,5.0,61,0.00,OVC,,0.00,1328.5,WeatherDisplay:10.37,2013-04-01 00:15:00,
2013-04-01 10:20:00,83.7,68.4,30.00,NNW,347,2.0,6.0,60,0.00,OVC,,0.00,1274.4,WeatherDisplay:10.37,2013-04-01 00:20:00,
2013-04-01 10:25:00,85.2,68.8,30.00,NNW,346,5.0,6.0,58,0.00,OVC,,0.00,1374.0,WeatherDisplay:10.37,2013-04-01 00:25:00,
2013-04-01 10:30:00,85.0,68.6,29.99,ENE,57,3.0,6.0,58,0.00,OVC,,0.00,1354.6,WeatherDisplay:10.37,2013-04-01 00:30:00,
2013-04-01 10:35:00,84.1,67.2,30.00,North,11,5.0,8.0,57,0.00,OVC,,0.00,1411.9,WeatherDisplay:10.37,2013-04-01 00:35:00,
2013-04-01 10:45:00,85.8,67.8,29.99,ENE,61,2.0,8.0,55,0.00,OVC,,0.00,1343.5,WeatherDisplay:10.37,2013-04-01 00:45:00,
2013-04-01 10:50:00,85.8,66.7,29.99,NNE,17,3.0,7.0,53,0.00,OVC,,0.00,1341.5,WeatherDisplay:10.37,2013-04-01 00:50:00,
2013-04-01 10:55:00,86.0,65.8,29.99,NNW,337,3.0,13.0,51,0.00,OVC,,0.00,1352.3,WeatherDisplay:10.37,2013-04-01 00:55:00,
2013-04-01 11:00:00,85.0,64.9,29.99,NE,34,7.0,12.0,51,0.00,OVC,,0.00,1367.4,WeatherDisplay:10.37,2013-04-01 01:00:00,
2013-04-01 11:05:00,84.9,64.8,29.99,NNE,26,7.0,12.0,51,0.00,OVC,,0.00,1371.6,WeatherDisplay:10.37,2013-04-01 01:05:00,
2013-04-01 11:10:00,84.2,64.1,29.99,North,3,9.0,13.0,51,0.00,OVC,,0.00,1379.3,WeatherDisplay:10.37,2013-04-01 01:10:00,
2013-04-01 11:15:00,84.1,64.0,29.98,NNE,17,7.0,11.0,51,0.00,OVC,,0.00,1386.3,WeatherDisplay:10.37,2013-04-01 01:15:00,
2013-04-01 11:25:00,86.0,62.8,29.98,ENE,66,5.0,12.0,46,0.00,OVC,,0.00,1428.4,WeatherDisplay:10.37,2013-04-01 01:25:00,
2013-04-01 11:30:00,86.5,63.9,29.98,NE,54,8.0,12.0,47,0.00,OVC,,0.00,1439.6,WeatherDisplay:10.37,2013-04-01 01:30:00,
2013-04-01 11:35:00,86.4,63.1,29.98,NE,53,6.0,8.0,46,0.00,OVC,,0.00,1454.9,WeatherDisplay:10.37,2013-04-01 01:35:00,
2013-04-01 11:40:00,86.7,63.5,29.97,NE,48,6.0,11.0,46,0.00,OVC,,0.00,1468.1,WeatherDisplay:10.37,2013-04-01 01:40:00,
2013-04-01 11:45:00,85.5,62.3,29.97,ENE,72,5.0,13.0,46,0.00,OVC,,0.00,1467.8,WeatherDisplay:10.37,2013-04-01 01:45:00,
2013-04-01 11:50:00,85.7,63.2,29.97,ENE,68,5.0,10.0,47,0.00,OVC,,0.00,1469.3,WeatherDisplay:10.37,2013-04-01 01:50:00,
2013-04-01 11:55:00,86.4,63.8,29.97,ENE,74,6.0,13.0,47,0.00,OVC,,0.00,1487.7,WeatherDisplay:10.37,2013-04-01 01:55:00,
2013-04-01 12:00:00,86.1,62.9,29.97,East,82,5.0,11.0,46,0.00,OVC,,0.00,1491.7,WeatherDisplay:10.37,2013-04-01 02:00:00,
2013-04-01 12:05:00,87.6,64.8,29.97,NE,51,3.0,8.0,47,0.00,OVC,,0.00,1503.3,WeatherDisplay:10.37,2013-04-01 02:05:00,
2013-04-01 12:10:00,86.8,64.1,29.96,NNE,29,8.0,12.0,47,0.00,OVC,,0.00,1503.2,WeatherDisplay:10.37,2013-04-01 02:10:00,
2013-04-01 12:15:00,85.6,64.3,29.96,NNE,20,5.0,12.0,49,0.00,OVC,,0.00,1498.9,WeatherDisplay:10.37,2013-04-01 02:15:00,
2013-04-01 12:25:00,87.5,64.2,29.95,East,90,2.0,11.0,46,0.00,OVC,,0.00,1515.6,WeatherDisplay:10.37,2013-04-01 02:25:00,
2013-04-01 12:30:00,87.1,63.8,29.95,East,90,6.0,13.0,46,0.00,OVC,,0.00,1517.6,WeatherDisplay:10.37,2013-04-01 02:30:00,
2013-04-01 12:40:00,88.2,64.1,29.95,NE,45,6.0,9.0,45,0.00,OVC,,0.00,1528.9,WeatherDisplay:10.37,2013-04-01 02:40:00,
2013-04-01 12:45:00,86.4,63.8,29.94,NE,43,7.0,12.0,47,0.00,OVC,,0.00,1504.5,WeatherDisplay:10.37,2013-04-01 02:45:00,
2013-04-01 12:55:00,86.8,65.3,29.94,ENE,75,7.0,13.0,49,0.00,OVC,,0.00,1487.7,WeatherDisplay:10.37,2013-04-01 02:55:00,
2013-04-01 13:00:00,86.0,66.3,29.94,NE,49,7.0,12.0,52,0.00,OVC,,0.00,1486.8,WeatherDisplay:10.37,2013-04-01 03:00:00,
2013-04-01 13:05:00,86.4,66.1,29.94,North,354,8.0,13.0,51,0.00,OVC,,0.00,1479.9,WeatherDisplay:10.37,2013-04-01 03:05:00,
2013-04-01 13:10:00,86.1,66.4,29.94,North,7,6.0,12.0,52,0.00,OVC,,0.00,1469.2,WeatherDisplay:10.37,2013-04-01 03:10:00,
2013-04-01 13:15:00,86.2,65.9,29.93,NE,40,2.0,13.0,51,0.00,OVC,,0.00,1468.4,WeatherDisplay:10.37,2013-04-01 03:15:00,
2013-04-01 13:25:00,86.4,66.1,29.93,NE,43,6.0,12.0,51,0.00,OVC,,0.00,1453.8,WeatherDisplay:10.37,2013-04-01 03:25:00,
2013-04-01 13:30:00,87.5,67.7,29.93,NE,47,8.0,13.0,52,0.00,OVC,,0.00,1479.1,WeatherDisplay:10.37,2013-04-01 03:30:00,
2013-04-01 13:35:00,86.8,66.5,29.93,NNE,33,5.0,13.0,51,0.00,OVC,,0.00,1449.1,WeatherDisplay:10.37,2013-04-01 03:35:00,
2013-04-01 13:45:00,86.9,67.2,29.92,NNE,16,5.0,12.0,52,0.00,OVC,,0.00,1436.4,WeatherDisplay:10.37,2013-04-01 03:45:00,
2013-04-01 13:55:00,87.2,66.9,29.92,ENE,69,8.0,11.0,51,0.00,OVC,,0.00,480.7,WeatherDisplay:10.37,2013-04-01 03:55:00,
2013-04-01 14:00:00,85.5,66.4,29.92,East,87,3.0,12.0,53,0.00,OVC,,0.00,1363.7,WeatherDisplay:10.37,2013-04-01 04:00:00,
2013-04-01 14:05:00,87.0,67.3,29.92,NNE,32,7.0,11.0,52,0.00,OVC,,0.00,1339.4,WeatherDisplay:10.37,2013-04-01 04:05:00,
2013-04-01 14:10:00,86.6,67.4,29.92,NNE,30,6.0,14.0,53,0.00,OVC,,0.00,1325.3,WeatherDisplay:10.37,2013-04-01 04:10:00,
2013-04-01 14:15:00,86.9,67.7,29.91,NNE,25,9.0,13.0,53,0.00,OVC,,0.00,1310.0,WeatherDisplay:10.37,2013-04-01 04:15:00,
2013-04-01 14:20:00,87.3,67.5,29.92,NE,47,6.0,9.0,52,0.00,OVC,,0.00,1299.6,WeatherDisplay:10.37,2013-04-01 04:20:00,
2013-04-01 14:25:00,87.5,67.7,29.92,NNE,32,8.0,14.0,52,0.00,OVC,,0.00,1281.4,WeatherDisplay:10.37,2013-04-01 04:25:00,
2013-04-01 14:30:00,87.2,68.0,29.92,NNE,28,7.0,11.0,53,0.00,OVC,,0.00,1250.2,WeatherDisplay:10.37,2013-04-01 04:30:00,
2013-04-01 14:35:00,87.5,68.3,29.91,NNE,19,10.0,14.0,53,0.00,OVC,,0.00,1233.3,WeatherDisplay:10.37,2013-04-01 04:35:00,
2013-04-01 14:40:00,86.5,67.9,29.91,NNE,33,8.0,15.0,54,0.00,OVC,,0.00,1205.5,WeatherDisplay:10.37,2013-04-01 04:40:00,
2013-04-01 14:50:00,85.7,67.7,29.91,North,11,10.0,14.0,55,0.00,OVC,,0.00,1149.8,WeatherDisplay:10.37,2013-04-01 04:50:00,
2013-04-01 14:55:00,85.9,68.4,29.91,North,2,7.0,14.0,56,0.00,OVC,,0.00,1125.4,WeatherDisplay:10.37,2013-04-01 04:55:00,
2013-04-01 15:05:00,85.3,67.8,29.91,NNE,31,7.0,15.0,56,0.00,OVC,,0.00,1072.0,WeatherDisplay:10.37,2013-04-01 05:05:00,
2013-04-01 15:10:00,85.3,67.8,29.92,NNE,33,6.0,13.0,56,0.00,OVC,,0.00,1046.3,WeatherDisplay:10.37,2013-04-01 05:10:00,
2013-04-01 15:15:00,85.5,68.5,29.92,NE,48,8.0,14.0,57,0.00,OVC,,0.00,1016.2,WeatherDisplay:10.37,2013-04-01 05:15:00,
2013-04-01 15:20:00,85.4,68.5,29.91,NE,45,7.0,13.0,57,0.00,OVC,,0.00,990.5,WeatherDisplay:10.37,2013-04-01 05:20:00,
2013-04-01 15:25:00,85.2,68.7,29.91,NE,47,8.0,13.0,58,0.00,OVC,,0.00,966.2,WeatherDisplay:10.37,2013-04-01 05:25:00,
2013-04-01 15:35:00,84.4,69.0,29.91,NE,36,8.0,14.0,60,0.00,OVC,,0.00,911.6,WeatherDisplay:10.37,2013-04-01 05:35:00,
2013-04-01 15:45:00,84.0,68.6,29.92,NE,39,10.0,14.0,60,0.00,OVC,,0.00,865.2,WeatherDisplay:10.37,2013-04-01 05:45:00,
2013-04-01 15:50:00,83.8,69.0,29.92,NE,44,9.0,13.0,61,0.00,OVC,,0.00,856.8,WeatherDisplay:10.37,2013-04-01 05:50:00,
2013-04-01 15:55:00,84.4,68.5,29.92,NE,35,8.0,14.0,59,0.00,OVC,,0.00,848.6,WeatherDisplay:10.37,2013-04-01 05:55:00,
2013-04-01 16:05:00,83.4,68.5,29.92,NE,48,9.0,14.0,61,0.00,OVC,,0.00,786.2,WeatherDisplay:10.37,2013-04-01 06:05:00,
2013-04-01 16:10:00,83.0,68.6,29.93,NE,40,10.0,13.0,62,0.00,OVC,,0.00,744.3,WeatherDisplay:10.37,2013-04-01 06:10:00,
2013-04-01 16:15:00,83.5,69.1,29.93,NE,47,9.0,15.0,62,0.00,OVC,,0.00,696.6,WeatherDisplay:10.37,2013-04-01 06:15:00,
2013-04-01 16:20:00,83.6,69.2,29.93,NE,43,8.0,12.0,62,0.00,OVC,,0.00,669.7,WeatherDisplay:10.37,2013-04-01 06:20:00,
2013-04-01 16:25:00,83.3,69.4,29.93,NE,38,8.0,14.0,63,0.00,OVC,,0.00,627.5,WeatherDisplay:10.37,2013-04-01 06:25:00,
2013-04-01 16:30:00,83.4,69.5,29.93,NE,49,9.0,13.0,63,0.00,OVC,,0.00,597.2,WeatherDisplay:10.37,2013-04-01 06:30:00,
2013-04-01 16:35:00,82.5,69.1,29.93,ENE,58,8.0,13.0,64,0.00,OVC,,0.00,557.1,WeatherDisplay:10.37,2013-04-01 06:35:00,
2013-04-01 16:45:00,82.2,69.3,29.93,NE,38,7.0,13.0,65,0.00,OVC,,0.00,493.5,WeatherDisplay:10.37,2013-04-01 06:45:00,
2013-04-01 16:50:00,81.7,69.2,29.93,NE,37,8.0,13.0,66,0.00,OVC,,0.00,449.0,WeatherDisplay:10.37,2013-04-01 06:50:00,
2013-04-01 16:55:00,81.5,69.0,29.93,NE,41,7.0,13.0,66,0.00,OVC,,0.00,404.8,WeatherDisplay:10.37,2013-04-01 06:55:00,
2013-04-01 17:05:00,81.5,69.5,29.93,NE,46,7.0,13.0,67,0.00,CLR,,0.00,324.0,WeatherDisplay:10.37,2013-04-01 07:05:00,
2013-04-01 17:10:00,81.1,69.1,29.93,NE,40,8.0,13.0,67,0.00,CLR,,0.00,289.3,WeatherDisplay:10.37,2013-04-01 07:10:00,
2013-04-01 17:15:00,80.6,69.5,29.93,NE,41,9.0,15.0,69,0.00,CLR,,0.00,256.3,WeatherDisplay:10.37,2013-04-01 07:15:00,
2013-04-01 17:20:00,80.5,70.2,29.94,NNE,31,8.0,13.0,71,0.00,CLR,,0.00,225.2,WeatherDisplay:10.37,2013-04-01 07:20:00,
2013-04-01 17:30:00,80.1,70.7,29.94,NNE,18,6.0,11.0,73,0.00,CLR,,0.00,169.7,WeatherDisplay:10.37,2013-04-01 07:30:00,
2013-04-01 17:35:00,79.9,70.1,29.95,ENE,60,6.0,11.0,72,0.00,CLR,,0.00,153.5,WeatherDisplay:10.37,2013-04-01 07:35:00,
2013-04-01 17:40:00,79.5,70.1,29.94,NE,55,7.0,13.0,73,0.00,CLR,,0.00,137.4,WeatherDisplay:10.37,2013-04-01 07:40:00,
2013-04-01 17:45:00,79.3,70.3,29.95,NE,42,6.0,8.0,74,0.00,CLR,,0.00,129.6,WeatherDisplay:10.37,2013-04-01 07:45:00,
2013-04-01 17:50:00,78.8,69.8,29.95,NE,39,6.0,12.0,74,0.00,CLR,,0.00,120.0,WeatherDisplay:10.37,2013-04-01 07:50:00,
2013-04-01 17:55:00,78.4,70.2,29.95,NE,40,7.0,13.0,76,0.00,CLR,,0.00,104.2,WeatherDisplay:10.37,2013-04-01 07:55:00,
2013-04-01 18:00:00,78.3,70.8,29.95,NNE,33,6.0,10.0,78,0.00,CLR,,0.00,86.6,WeatherDisplay:10.37,2013-04-01 08:00:00,
2013-04-01 18:05:00,77.5,70.1,29.95,NNE,31,7.0,11.0,78,0.00,CLR,,0.00,55.7,WeatherDisplay:10.37,2013-04-01 08:05:00,
2013-04-01 18:10:00,77.1,70.4,29.96,NNE,23,7.0,10.0,80,0.00,CLR,,0.00,17.0,WeatherDisplay:10.37,2013-04-01 08:10:00,
2013-04-01 18:15:00,76.1,70.2,29.96,North,7,7.0,11.0,82,0.00,CLR,,0.00,10.5,WeatherDisplay:10.37,2013-04-01 08:15:00,
2013-04-01 18:20:00,75.7,70.5,29.96,North,10,5.0,9.0,84,0.00,CLR,,0.00,4.9,WeatherDisplay:10.37,2013-04-01 08:20:00,
2013-04-01 18:25:00,75.2,70.0,29.96,NNE,26,9.0,11.0,84,0.00,CLR,,0.00,0.4,WeatherDisplay:10.37,2013-04-01 08:25:00,
2013-04-01 18:30:00,74.8,70.4,29.96,NE,36,6.0,10.0,86,0.00,CLR,,0.00,0.0,WeatherDisplay:10.37,2013-04-01 08:30:00,
2013-04-01 18:35:00,74.7,70.2,29.96,NNE,33,5.0,11.0,86,0.00,CLR,,0.00,0.0,WeatherDisplay:10.37,2013-04-01 08:35:00,
2013-04-01 18:40:00,74.5,70.0,29.96,NE,35,9.0,13.0,86,0.00,CLR,,0.00,0.0,WeatherDisplay:10.37,2013-04-01 08:40:00,
2013-04-01 18:45:00,74.3,70.2,29.97,NNE,22,7.0,11.0,87,0.00,CLR,,0.00,0.0,WeatherDisplay:10.37,2013-04-01 08:45:00,
2013-04-01 18:50:00,74.1,70.0,29.97,NNE,28,5.0,10.0,87,0.00,CLR,,0.00,0.0,WeatherDisplay:10.37,2013-04-01 08:50:00,
2013-04-01 18:55:00,73.9,69.7,29.97,NNE,26,6.0,8.0,87,0.00,CLR,,0.00,0.0,WeatherDisplay:10.37,2013-04-01 08:55:00,
2013-04-01 19:00:00,73.8,70.0,29.97,NNE,23,6.0,8.0,88,0.00,CLR,,0.00,0.0,WeatherDisplay:10.37,2013-04-01 09:00:00,
2013-04-01 19:05:00,73.6,69.8,29.97,NNE,17,6.0,9.0,88,0.00,CLR,,0.00,0.0,WeatherDisplay:10.37,2013-04-01 09:05:00,
2013-04-01 19:10:00,73.4,69.6,29.97,NNE,27,6.0,9.0,88,0.00,CLR,,0.00,0.0,WeatherDisplay:10.37,2013-04-01 09:10:00,
2013-04-01 19:15:00,73.4,69.9,29.97,NE,36,5.0,8.0,89,0.00,CLR,,0.00,0.0,WeatherDisplay:10.37,2013-04-01 09:15:00,
2013-04-01 19:20:00,73.2,69.5,29.98,NNE,25,5.0,7.0,88,0.00,CLR,,0.00,0.0,WeatherDisplay:10.37,2013-04-01 09:20:00,
2013-04-01 19:25:00,73.1,69.3,29.98,NNE,15,5.0,8.0,88,0.00,CLR,,0.00,0.0,WeatherDisplay:10.37,2013-04-01 09:25:00,
2013-04-01 19:30:00,73.0,69.5,29.98,NNE,13,3.0,6.0,89,0.00,CLR,,0.00,0.0,WeatherDisplay:10.37,2013-04-01 09:30:00,
2013-04-01 19:35:00,72.9,69.4,29.98,North,9,3.0,7.0,89,0.00,CLR,,0.00,0.0,WeatherDisplay:10.37,2013-04-01 09:35:00,
2013-04-01 19:40:00,72.6,69.5,29.98,North,9,3.0,7.0,90,0.00,CLR,,0.00,0.0,WeatherDisplay:10.37,2013-04-01 09:40:00,
2013-04-01 19:45:00,72.5,69.4,29.98,North,9,3.0,6.0,90,0.00,CLR,,0.00,0.0,WeatherDisplay:10.37,2013-04-01 09:45:00,
2013-04-01 19:50:00,72.3,69.2,29.98,NNE,15,3.0,6.0,90,0.00,CLR,,0.00,0.0,WeatherDisplay:10.37,2013-04-01 09:50:00,
2013-04-01 19:55:00,72.3,69.5,29.98,NNE,15,2.0,6.0,91,0.00,CLR,,0.00,0.0,WeatherDisplay:10.37,2013-04-01 09:55:00,
2013-04-01 20:00:00,72.2,69.4,29.99,NNE,17,3.0,6.0,91,0.00,CLR,,0.00,0.0,WeatherDisplay:10.37,2013-04-01 10:00:00,
2013-04-01 20:05:00,72.1,69.4,29.99,NNE,18,2.0,6.0,91,0.00,CLR,,0.00,0.0,WeatherDisplay:10.37,2013-04-01 10:05:00,
2013-04-01 20:10:00,72.1,69.4,29.99,NNE,14,3.0,7.0,91,0.00,CLR,,0.00,0.0,WeatherDisplay:10.37,2013-04-01 10:10:00,
2013-04-01 20:15:00,72.0,69.2,29.99,North,8,3.0,7.0,91,0.00,CLR,,0.00,0.0,WeatherDisplay:10.37,2013-04-01 10:15:00,
2013-04-01 20:20:00,71.8,69.0,29.99,NNE,14,3.0,6.0,91,0.00,CLR,,0.00,0.0,WeatherDisplay:10.37,2013-04-01 10:20:00,
2013-04-01 20:30:00,71.6,68.8,29.99,NNE,22,2.0,6.0,91,0.00,CLR,,0.00,0.0,WeatherDisplay:10.37,2013-04-01 10:30:00,
2013-04-01 20:35:00,71.6,68.8,30.00,North,5,3.0,5.0,91,0.00,CLR,,0.00,0.0,WeatherDisplay:10.37,2013-04-01 10:35:00,
2013-04-01 20:40:00,71.6,68.8,30.00,North,8,2.0,5.0,91,0.00,CLR,,0.00,0.0,WeatherDisplay:10.37,2013-04-01 10:40:00,
2013-04-01 20:45:00,71.6,68.8,30.00,NNE,33,2.0,5.0,91,0.00,CLR,,0.00,0.0,WeatherDisplay:10.37,2013-04-01 10:45:00,
2013-04-01 20:50:00,71.4,69.0,30.00,NE,47,1.0,3.0,92,0.00,CLR,,0.00,0.0,WeatherDisplay:10.37,2013-04-01 10:50:00,
2013-04-01 20:55:00,71.2,68.8,30.00,NE,48,1.0,3.0,92,0.00,CLR,,0.00,0.0,WeatherDisplay:10.37,2013-04-01 10:55:00,
2013-04-01 21:00:00,71.2,68.8,30.00,NE,45,1.0,3.0,92,0.00,CLR,,0.00,0.0,WeatherDisplay:10.37,2013-04-01 11:00:00,
2013-04-01 21:05:00,71.2,68.8,30.00,NE,37,1.0,2.0,92,0.00,CLR,,0.00,0.0,WeatherDisplay:10.37,2013-04-01 11:05:00,
2013-04-01 21:10:00,71.2,68.8,30.00,North,10,1.0,3.0,92,0.00,CLR,,0.00,0.0,WeatherDisplay:10.37,2013-04-01 11:10:00,
2013-04-01 21:15:00,71.2,68.8,30.00,North,4,1.0,3.0,92,0.00,CLR,,0.00,0.0,WeatherDisplay:10.37,2013-04-01 11:15:00,
2013-04-01 21:25:00,71.6,68.8,30.00,NNW,334,1.0,2.0,91,0.00,CLR,,0.00,0.0,WeatherDisplay:10.37,2013-04-01 11:25:00,
2013-04-01 21:30:00,71.4,69.0,30.00,NW,315,0.0,2.0,92,0.00,CLR,,0.00,0.0,WeatherDisplay:10.37,2013-04-01 11:30:00,
2013-04-01 21:35:00,71.2,68.8,30.00,NW,315,0.0,2.0,92,0.00,CLR,,0.00,0.0,WeatherDisplay:10.37,2013-04-01 11:35:00,
2013-04-01 21:40:00,71.2,68.7,30.01,NW,315,0.0,2.0,92,0.00,CLR,,0.00,0.0,WeatherDisplay:10.37,2013-04-01 11:40:00,
2013-04-01 21:45:00,71.1,68.9,30.00,NW,315,1.0,2.0,93,0.00,CLR,,0.00,0.0,WeatherDisplay:10.37,2013-04-01 11:45:00,
2013-04-01 21:50:00,71.2,69.1,30.01,NW,315,1.0,2.0,93,0.00,CLR,,0.00,0.0,WeatherDisplay:10.37,2013-04-01 11:50:00,
2013-04-01 21:55:00,71.2,69.1,30.01,NW,315,1.0,2.0,93,0.00,CLR,,0.00,0.0,WeatherDisplay:10.37,2013-04-01 11:55:00,
2013-04-01 22:00:00,71.1,69.0,30.00,NNW,329,2.0,4.0,93,0.00,CLR,,0.00,0.0,WeatherDisplay:10.37,2013-04-01 12:00:00,
2013-04-01 22:05:00,71.2,68.8,30.00,NNW,328,1.0,3.0,92,0.00,CLR,,0.00,0.0,WeatherDisplay:10.37,2013-04-01 12:05:00,
2013-04-01 22:10:00,71.1,68.6,30.01,NW,319,1.0,2.0,92,0.00,CLR,,0.00,0.0,WeatherDisplay:10.37,2013-04-01 12:10:00,
2013-04-01 22:15:00,70.9,68.4,30.00,NNW,327,1.0,3.0,92,0.00,CLR,,0.00,0.0,WeatherDisplay:10.37,2013-04-01 12:15:00,
2013-04-01 22:20:00,70.6,68.5,30.00,NNW,347,1.0,3.0,93,0.00,CLR,,0.00,0.0,WeatherDisplay:10.37,2013-04-01 12:20:00,
2013-04-01 22:25:00,70.3,68.2,30.00,NNW,331,2.0,3.0,93,0.00,CLR,,0.00,0.0,WeatherDisplay:10.37,2013-04-01 12:25:00,
2013-04-01 22:30:00,70.2,68.0,30.00,NW,314,1.0,3.0,93,0.00,CLR,,0.00,0.0,WeatherDisplay:10.37,2013-04-01 12:30:00,
2013-04-01 22:35:00,70.0,67.9,30.00,NW,308,1.0,3.0,93,0.00,CLR,,0.00,0.0,WeatherDisplay:10.37,2013-04-01 12:35:00,
2013-04-01 22:40:00,69.7,67.9,30.01,WNW,300,1.0,2.0,94,0.00,CLR,,0.00,0.0,WeatherDisplay:10.37,2013-04-01 12:40:00,
2013-04-01 22:45:00,69.5,68.0,30.00,WNW,297,1.0,3.0,95,0.00,CLR,,0.00,0.0,WeatherDisplay:10.37,2013-04-01 12:45:00,
2013-04-01 22:50:00,69.4,67.9,30.00,WNW,303,2.0,3.0,95,0.00,CLR,,0.00,0.0,WeatherDisplay:10.37,2013-04-01 12:50:00,
2013-04-01 22:55:00,69.4,67.9,30.00,NW,313,2.0,4.0,95,0.00,CLR,,0.00,0.0,WeatherDisplay:10.37,2013-04-01 12:55:00,
2013-04-01 23:00:00,69.4,67.9,30.00,NW,315,3.0,4.0,95,0.00,CLR,,0.00,0.0,WeatherDisplay:10.37,2013-04-01 13:00:00,
2013-04-01 23:05:00,69.4,67.9,30.00,NW,315,2.0,4.0,95,0.00,CLR,,0.00,0.0,WeatherDisplay:10.37,2013-04-01 13:05:00,
2013-04-01 23:10:00,69.4,67.9,30.00,NW,315,2.0,3.0,95,0.00,CLR,,0.00,0.0,WeatherDisplay:10.37,2013-04-01 13:10:00,
2013-04-01 23:20:00,69.1,67.6,30.00,NW,315,1.0,3.0,95,0.00,CLR,,0.00,0.0,WeatherDisplay:10.37,2013-04-01 13:20:00,
2013-04-01 23:25:00,68.9,67.7,30.00,NW,315,0.0,2.0,96,0.00,CLR,,0.00,0.0,WeatherDisplay:10.37,2013-04-01 13:25:00,
2013-04-01 23:30:00,68.6,67.5,30.00,NW,315,0.0,0.0,96,0.00,CLR,,0.00,0.0,WeatherDisplay:10.37,2013-04-01 13:30:00,
2013-04-01 23:35:00,68.5,67.4,30.00,NNW,329,0.0,2.0,96,0.00,CLR,,0.00,0.0,WeatherDisplay:10.37,2013-04-01 13:35:00,
2013-04-01 23:40:00,68.4,67.2,30.00,North,360,0.0,1.0,96,0.00,CLR,,0.00,0.0,WeatherDisplay:10.37,2013-04-01 13:40:00,
2013-04-01 23:45:00,68.2,67.0,30.00,North,0,0.0,0.0,96,0.00,CLR,,0.00,0.0,WeatherDisplay:10.37,2013-04-01 13:45:00,
2013-04-01 23:50:00,68.0,67.1,30.00,North,0,0.0,0.0,97,0.00,CLR,,0.00,0.0,WeatherDisplay:10.37,2013-04-01 13:50:00,
2013-04-01 23:55:00,67.8,67.2,30.00,North,0,0.0,0.0,98,0.00,CLR,,0.00,0.0,WeatherDisplay:10.37,2013-04-01 13:55:00,